Weather History for Jackson, MI

Change the Weather History Date:

Tuesday, January 29, 2013

  Actual Average Record
Temperature  
Mean Temperature 47 °F 24 °F  
Max Temperature 58 °F 31 °F 58 °F (2013)
Min Temperature 35 °F 16 °F -12 °F (1966)
Degree Days  
Heating Degree Days 18 41  
Month to date heating degree days 1105 1204  
Since 1 July heating degree days 3495 3752  
Cooling Degree Days 0 0  
Month to date cooling degree days 0 0  
Year to date cooling degree days 0 0  
Moisture  
Dew Point 47 °F    
Average Humidity 73    
Maximum Humidity 93    
Minimum Humidity 53    
Precipitation  
Precipitation 0.80 in 0.03 in 0.81 in (2006)
Month to date precipitation 2.16 1.41  
Year to date precipitation 2.16 1.41  
Sea Level Pressure  
Sea Level Pressure 29.75 in    
Wind  
Wind Speed 10 mph (South)    
Max Wind Speed 25 mph    
Max Gust Speed 40 mph    
Visibility 4 miles    
Events Rain    
T = Trace of Precipitation, MM = Missing Value Source: NWS Daily Summary

Daily Weather History Graph

Daily Weather History Graph

Search for Another Location

Airport:

Trip Planner

Search our weather history database for the weather conditions in past years. The results will help you decide how hot, cold, wet, or windy it might be!

Date:

Astronomy

Jan. 29, 2013 Rise Set
Actual Time 7:53 AM EST 5:48 PM EST
Civil Twilight 7:23 AM EST 6:18 PM EST
Nautical Twilight 6:50 AM EST 6:52 PM EST
Astronomical Twilight 6:17 AM EST 7:25 PM EST
Moon 8:48 PM EST (1/29) 8:46 AM EST (1/29)
Length of Visible Light 10h 54m
Length of Day
9h 54m
Waning Gibbous, 94% of the Moon is Illuminated
Jan 29
Waning Gibbous
Feb 3
Last Quarter
Feb 10
New
Feb 17
First Quarter
Feb 25
Full

Hourly Weather History & Observations

Time (EST) Temp. Windchill Dew Point Humidity Pressure Visibility Wind Dir Wind Speed Gust Speed Precip Events Conditions
12:08 AM 35.6 °F 31.7 °F 33.8 °F 93% 29.98 in 0.8 mi East 4.6 mph - N/A   Overcast
12:23 AM 35.6 °F 30.7 °F 33.8 °F 93% 29.97 in 1.0 mi East 5.8 mph - N/A   Overcast
12:45 AM 35.6 °F 32.8 °F 33.8 °F 93% 29.98 in 2.0 mi SE 3.5 mph - N/A   Overcast
12:52 AM 35.6 °F 30.7 °F 33.8 °F 93% 29.97 in 1.5 mi ESE 5.8 mph - N/A   Overcast
12:56 AM 35.1 °F 31.0 °F 34.0 °F 96% 29.99 in 1.8 mi ESE 4.6 mph - N/A   Overcast
1:05 AM 35.6 °F 30.7 °F 33.8 °F 93% 29.97 in 2.0 mi SE 5.8 mph - N/A   Overcast
1:15 AM 35.6 °F 30.7 °F 33.8 °F 93% 29.96 in 1.5 mi SE 5.8 mph - N/A   Overcast
1:35 AM 35.6 °F 29.9 °F 33.8 °F 93% 29.95 in 0.8 mi SE 6.9 mph - N/A   Overcast
1:56 AM 44.1 °F 39.5 °F 34.0 °F 68% 29.96 in 0.5 mi SE 8.1 mph - N/A   Haze
2:56 AM 46.9 °F - 35.1 °F 63% 29.95 in 0.8 mi SSE 6.9 mph - N/A   Haze
3:37 AM 48.2 °F - 35.6 °F 62% 29.91 in 1.0 mi SE 5.8 mph - 0.01 in Rain Light Rain
3:56 AM 48.9 °F - 35.1 °F 59% 29.87 in 1.5 mi SE 12.7 mph - 0.02 in Rain Light Rain
4:09 AM 50.0 °F - 35.6 °F 58% 29.90 in 3.0 mi SSE 10.4 mph - 0.00 in   Haze
4:56 AM 53.1 °F - 37.0 °F 55% 29.86 in 10.0 mi SSE 11.5 mph - 0.02 in   Overcast
5:56 AM 53.1 °F - 39.0 °F 59% 29.82 in 2.5 mi SSE 15.0 mph - N/A   Haze
6:21 AM 55.4 °F - 41.0 °F 58% 29.79 in 1.5 mi SSE 12.7 mph - N/A   Haze
6:56 AM 57.9 °F - 43.0 °F 58% 29.81 in 1.2 mi SSE 11.5 mph - 0.02 in   Haze
7:56 AM 59.0 °F - 43.0 °F 55% 29.80 in 1.8 mi South 8.1 mph - 0.01 in   Haze
8:56 AM 62.1 °F - 46.9 °F 58% 29.79 in 2.0 mi SSW 10.4 mph - N/A   Haze
9:13 AM 64.4 °F - 48.2 °F 56% 29.77 in 3.0 mi SSW 10.4 mph - N/A   Haze
9:38 AM - - - N/A% 29.77 in 4.0 mi SSW 11.5 mph - N/A   Haze
9:56 AM - - - N/A% 29.77 in 5.0 mi SSW 10.4 mph - N/A   Haze
10:56 AM - - - N/A% 29.77 in 8.0 mi SSW 12.7 mph 20.7 mph N/A   Overcast
11:56 AM - - - N/A% 29.72 in 4.0 mi South 6.9 mph - 0.05 in Rain Light Rain
12:06 PM - - - N/A% 29.76 in 7.0 mi SW 10.4 mph - 0.01 in Rain Light Rain
12:21 PM 55.4 °F - 53.6 °F 94% 29.75 in 7.0 mi SSW 13.8 mph - 0.01 in Rain Light Rain
12:56 PM 55.0 °F - 53.1 °F 93% 29.75 in 7.0 mi SSW 15.0 mph 21.9 mph 0.01 in Rain Light Rain
1:56 PM 55.0 °F - 54.0 °F 96% 29.71 in 3.0 mi SSW 17.3 mph - 0.01 in Rain Light Rain
2:56 PM 55.9 °F - 54.0 °F 93% 29.69 in 3.0 mi SSW 13.8 mph 21.9 mph 0.01 in Rain Light Rain
3:21 PM 55.4 °F - 53.6 °F 94% 29.70 in 1.8 mi SSW 12.7 mph 21.9 mph 0.11 in Rain Heavy Rain
3:36 PM 55.4 °F - 53.6 °F 94% 29.68 in 3.0 mi South 13.8 mph 19.6 mph 0.16 in Rain Light Rain
3:49 PM 55.4 °F - 53.6 °F 94% 29.67 in 5.0 mi South 11.5 mph - 0.16 in   Overcast
3:56 PM 55.9 °F - 54.0 °F 93% 29.68 in 4.0 mi South 12.7 mph - 0.17 in Rain Light Rain
4:07 PM 55.4 °F - 53.6 °F 94% 29.69 in 2.5 mi South 11.5 mph 20.7 mph 0.06 in Rain Heavy Rain
4:18 PM 55.4 °F - 53.6 °F 94% 29.68 in 2.5 mi South 12.7 mph - 0.12 in Rain Rain
4:33 PM 55.4 °F - 53.6 °F 94% 29.68 in 1.8 mi South 11.5 mph - 0.18 in Rain Rain
4:39 PM 55.4 °F - 53.6 °F 94% 29.67 in 3.0 mi South 13.8 mph - 0.18 in Rain Light Rain
4:56 PM 55.0 °F - 53.1 °F 93% 29.67 in 6.0 mi South 11.5 mph - 0.18 in   Overcast
5:10 PM 55.4 °F - 53.6 °F 94% 29.67 in 1.8 mi South 11.5 mph - 0.12 in Rain Heavy Rain
5:17 PM 55.4 °F - 53.6 °F 94% 29.66 in 3.0 mi South 12.7 mph - 0.13 in Rain Light Rain
5:56 PM 55.9 °F - 53.1 °F 90% 29.66 in 6.0 mi South 13.8 mph 19.6 mph 0.13 in Rain Light Rain
6:56 PM 55.9 °F - 53.1 °F 90% 29.63 in 7.0 mi South 11.5 mph 21.9 mph 0.01 in   Overcast
7:19 PM 55.4 °F - 53.6 °F 94% 29.62 in 4.0 mi South 15.0 mph - 0.02 in Rain Rain
7:28 PM 55.4 °F - 53.6 °F 94% 29.63 in 4.0 mi South 16.1 mph 27.6 mph 0.04 in Rain Rain
7:56 PM 55.9 °F - 53.1 °F 90% 29.60 in 4.0 mi South 13.8 mph 26.5 mph 0.09 in Rain Light Rain
8:06 PM 55.4 °F - 53.6 °F 94% 29.60 in 5.0 mi South 16.1 mph 24.2 mph 0.01 in Rain Light Rain
8:15 PM 55.4 °F - 53.6 °F 94% 29.60 in 5.0 mi South 16.1 mph 27.6 mph 0.02 in Rain Light Rain
8:29 PM 55.4 °F - 53.6 °F 94% 29.58 in 8.0 mi South 15.0 mph 27.6 mph 0.02 in   Overcast
8:56 PM 55.9 °F - 53.1 °F 90% 29.56 in 9.0 mi South 17.3 mph 27.6 mph 0.05 in   Overcast
9:56 PM 55.9 °F - 52.0 °F 87% 29.53 in 8.0 mi South 15.0 mph 25.3 mph N/A   Overcast
10:11 PM 55.4 °F - 53.6 °F 94% 29.51 in 9.0 mi South 17.3 mph 26.5 mph N/A   Overcast
10:56 PM 57.0 °F - 53.1 °F 87% 29.47 in 10.0 mi South 20.7 mph 29.9 mph N/A   Overcast
11:56 PM 57.9 °F - 54.0 °F 87% 29.42 in 7.0 mi South 17.3 mph 25.3 mph 0.02 in Rain Light Rain